www.pogodaiklimat.ru

Погода и климат >> Архив погоды >> Парагвай >> Куйкуйо


ПОГОДА в Куйкуйо

  • Прогноз погоды в Куйкуйо
  • Монитор погоды в Куйкуйо

АРХИВ ПОГОДЫ в Куйкуйо

Время (UTC), дата Ветер
(напр.,м/с)
 
Видим.   Явления Облачность Т
(С)
Тd
(С)
f
(%)
Тe
(С)
Тes
(С)
Комфортность P
(гПа)
Po
(гПа)
Тmin
(С)
Tmax
(С)
R
(мм)
R24
(мм)
S
(см)
18 16.07 Ю 2 20 км 4/0 2000 м
[Ci]
+19.0 +5.2 40 1022.6
00 17.07 Ю 2 20 км ясно +12.2 +5.8 65 +11 +11 1021.5 1003.9 +20.0
09 17.07 штиль 0 20 км ясно +7.2 +5.2 87 +6 +6 1022.8 1004.9
12 17.07 штиль 0 20 км ясно +7.6 +6.5 93 +7 +9 1023.9 1005.9 +5.0
18 17.07 штиль 0 20 км 3/0 2000 м
[Ci]
+23.2 +8.2 38 +24 +33 комфорт 1020.6 1003.7
00 18.07 Ю 2 20 км ясно +14.2 +10.1 76 +14 +14 1020.3 1002.8 +23.4
09 18.07 СВ 4 20 км 1/0 2000 м
[Ac und]
+14.2 +7.9 66 +13 +13 1017.7 1000.2
12 18.07 СВ 2 20 км 10/10 600 м
[Sc]
+15.8 +8.7 63 +16 +16 1019.8 1002.4 +7.0
18 18.07 СВ 2 20 км гроза без осадков 10/10 600 м
[Cb cap]
+20.6 +12.8 61 +23 +23 комфорт 1017.6 1000.5
09 19.07 штиль 0 10 км гроза, ливневой дождь 10/10 1000 м
[Cb cap]
+14.4 +12.1 86 +14 +14 1018.5 1001.0 1
12 19.07 штиль 0 20 км 10/10 600 м
[Sc]
+14.8 +12.0 83 +15 +15 1015.7 998.3 +14.0 1
18 19.07 штиль 0 20 км 10/10 600 м
[Sc]
+21.4 +16.0 71 +25 +25 комфорт 1017.9 1000.9
00 20.07 штиль 0 20 км ясно +16.4 +14.2 87 +16 +16 1016.7 999.5 +22.2
09 20.07 В 2 20 км 4/4 600 м
[Sc]
+14.6 +12.3 86 +14 +14 1015.9 998.5
12 20.07 штиль 0 20 км 6/6 800 м
[Sc]
+16.2 +14.1 87 +16 +17 1016.0 998.8 +13.4
18 20.07 СВ 6 20 км 4/4 800 м
[Sc]
+28.2 +16.7 50 +32 +33 душно 1012.0 995.5
00 21.07 СВ 2 20 км ясно +22.0 +15.6 67 +26 +26 душно 1010.8 994.0 +30.0
09 21.07 СВ 6 20 км 1/0 2000 м
[Ac und]
+21.4 +12.1 55 +24 +24 комфорт 1009.2 992.3
12 21.07 СВ 10 20 км 4/4 800 м
[Sc]
+22.4 +11.0 48 +24 +25 комфорт 1010.6 993.8 +13.4
18 21.07 СВ 10 20 км 4/4 800 м
[Sc]
+28.2 +13.1 39 +30 +30 жарко 1006.2 989.8
00 22.07 СВ 4 20 км ясно +24.0 +11.4 45 +25 +25 комфорт 1005.4 988.8 +28.2
09 22.07 С 6 20 км 4/4 800 м
[Sc]
+23.0 +10.4 45 +25 +25 комфорт 1008.5 991.8
12 22.07 Ю 6 20 км 6/6 800 м
[Sc]
+23.4 +12.6 51 +26 +27 жарко 1005.5 992.8 +20.2
18 22.07 С 2 20 км 10/6 800 м
[Sc Ac As]
+26.4 +14.4 48 +29 +30 жарко 1009.2 992.6
00 23.07 штиль 0 20 км 10/10 600 м
[Sc]
+21.8 +17.6 77 +26 +26 душно 1012.2 995.3 +27.0
09 23.07 С 6 20 км 4/4 800 м
[Sc]
+23.0 +10.4 45 +25 +25 комфорт 1008.5 991.8
12 23.07 штиль 0 10 км гроза, ливневой дождь 10/10 500 м
[Cb cap]
+16.6 +15.8 95 +16 +16 1015.9 998.7 +16.0 5

 

Местоположение метеостанции Куйкуйо (Парагвай): широта -26.22 долгота -56.98 высота над уровнем моря 101 м.

В архиве по умолчанию представлена погода в Куйкуйо за последнюю неделю. Архивные данные за месяц целиком и за предыдущие месяцы, начиная с января 2011 года, Вы можете получить, выбрав интересующий диапазон дат из раскрывающегося списка и нажав кнопку "Ввод!".


*Определитесь, кто Вы:
робот инопланетянин человек

Внимание! Время в таблицах - всемирное. Для получения местного времени необходимо прибавить поправку, которая равна -4 ч.

Смотрите также архив погоды в соседних городах и на ближайших метеорологических станциях:

Погода в Сан Хуан Батистута (Парагвай) (52 км)
Погода в Каасапе (Парагвай) (63 км)
Погода в Парагуари (Парагвай) (67 км)
Погода в Вильяррике (Парагвай) (76 км)
Погода в Коронель-Овьедо (Парагвай) (106 км)
Погода в Асунсьоне (Парагвай) (120 км)
Погода в Формосе (Аргентина) (125 км)
Погода в Пиларе (Парагвай) (150 км)
Погода в Посадасе (Аргентина) (162 км)
Погода в Энкарнасьоне (Парагвай) (167 км)

Пояснения к столбцам:

Ветер - указаны скорость ветра в м/с - средняя за 10 мин, порывы в срок и между сроками (в фигурных скобках) и направление, откуда дует ветер: С - северный, СВ - северо-восточный, В - восточный, ЮВ - юго-восточный, Ю - южный, ЮЗ - юго-западный, З - западный, СЗ - северо-западный.
Видимость - горизонтальная дальность видимости в метрах или километрах. При видимости от 1 до 10 км при отсутствии осадков обычно наблюдается дымка, при ухудшении видимости до 1 км и менее - туман. В сухую погоду видимость может ухудшаться дымом, пылью или мглою.
Явления - указаны атмосферные явления, наблюдавшиеся в срок или в последний час перед сроком; фигурными скобками обозначены явления, наблюдавшиеся между сроками (за 1-3 часа до срока); квадратными скобками обозначены град или гололедные отложения с указанием их диаметра в мм.
Облачность - указаны через наклонную черту общая и нижняя облачность в баллах и высота нижней границы облаков в метрах; квадратными скобками обозначены формы облаков: Ci - перистые, Cs - перисто-слоистые, Cc - перисто-кучевые, Ac - высококучевые, As - высокослоистые, Sc - слоисто-кучевые, Ns - слоисто-дождевые, Cu - кучевые, Cb - кучево-дождевые. Подробнее классификацию облаков см. в Атласе облаков (PDF).
T - Температура воздуха - температура, измеренная на высоте 2 м над землей.
Td - Температура точки росы - температура, при понижении до которой содержащийся в воздухе водяной пар достигнет насыщения.
f - Относительная влажность воздуха - влажноcть воздуха, измеренная на высоте 2 м над землей.
Te - Эффективная температура - температура, которую ощущает одетый по сезону человек в тени. Характеристика душности погоды. При расчете учитывается влияние влажности воздуха и скорости ветра на теплоощущения человека.
Tes - Эффективная температура на солнце - температура, которую ощущает человек, с поправкой на солнечный нагрев. Характеристика знойности погоды. Зависит от высоты солнца над горизонтом, облачности и скорости ветра. Ночью, в пасмурную погоду, а также при ветре 12 м/с и более поправка равна нулю.
P - Атмосферное давление - приведенное к уровню моря атмосферное давление.
Po - Атмосферное давление - измеренное на уровне метеостанции атмосферное давление.
Tmin - Минимальная температура - минимум температуры воздуха на высоте 2 м над землей.
Tmax - Максимальная температура - максимум температуры воздуха на высоте 2 м над землей.
R - Количество осадков - Количество выпавших осадков за период времени, мм. При наведении курсора мыши на число - период времени, за который выпало указанное количество осадков.
R24 - Количество осадков - Количество выпавших осадков за 24 часа, мм.
S - Снежный покров - Высота снежного покрова, см. При наведении курсора мыши на число - состояние снежного покрова и степень покрытия местности в баллах.